| time (UTC) | temp F | wind direction | speed MPH | gust MPH | rain 1hr in | rain 24hr in | rain mn in | humidity % | barometer mb |
| 20260905193545 | 101 | 184 | 1.0 | 5.0 | 0.00 | 0.00 | 0.00 | 23 | 1009.5 |
| 20260905193043 | 101 | 201 | 2.0 | 5.0 | 0.00 | 0.00 | 0.00 | 23 | 1009.5 |
| 20260905192543 | 101 | 200 | 1.0 | 5.0 | 0.00 | 0.00 | 0.00 | 23 | 1009.5 |
| 20260905192046 | 101 | 188 | 1.0 | 5.0 | 0.00 | 0.00 | 0.00 | 23 | 1009.6 |
| 20260905191542 | 101 | 155 | 0.0 | 3.0 | 0.00 | 0.00 | 0.00 | 22 | 1009.8 |
| 20260905191042 | 101 | 123 | 1.0 | 5.0 | 0.00 | 0.00 | 0.00 | 22 | 1009.8 |
| 20260905190543 | 100 | 144 | 1.0 | 5.0 | 0.00 | 0.00 | 0.00 | 22 | 1009.9 |
| 20260905190040 | 100 | 207 | 0.0 | 4.0 | 0.00 | 0.00 | 0.00 | 23 | 1010.0 |
| 20260905185541 | 100 | 185 | 1.0 | 3.0 | 0.00 | 0.00 | 0.00 | 23 | 1010.1 |
| 20260905185040 | 100 | 338 | 1.0 | 4.0 | 0.00 | 0.00 | 0.00 | 23 | 1010.2 |
| 20260905184554 | 100 | 170 | 1.0 | 4.0 | 0.00 | 0.00 | 0.00 | 24 | 1010.2 |
| 20260905184038 | 100 | 143 | 1.0 | 4.0 | 0.00 | 0.00 | 0.00 | 23 | 1010.3 |
| 20260905183537 | 99 | 227 | 0.0 | 7.0 | 0.00 | 0.00 | 0.00 | 24 | 1010.3 |
| 20260905183045 | 99 | 151 | 1.0 | 7.0 | 0.00 | 0.00 | 0.00 | 24 | 1010.4 |
| 20260905182534 | 98 | 141 | 2.0 | 5.0 | 0.00 | 0.00 | 0.00 | 24 | 1010.4 |
| 20260905182034 | 98 | 221 | 2.0 | 5.0 | 0.00 | 0.00 | 0.00 | 24 | 1010.5 |
| 20260905181540 | 98 | 197 | 2.0 | 5.0 | 0.00 | 0.00 | 0.00 | 25 | 1010.5 |
| 20260905181031 | 98 | 200 | 0.0 | 4.0 | 0.00 | 0.00 | 0.00 | 27 | 1010.5 |
| 20260905180531 | 97 | 203 | 1.0 | 5.0 | 0.00 | 0.00 | 0.00 | 26 | 1010.5 |
| 20260905180035 | 97 | 125 | 1.0 | 6.0 | 0.00 | 0.00 | 0.00 | 26 | 1010.6 |
| 20260905175530 | 97 | 171 | 2.0 | 7.0 | 0.00 | 0.00 | 0.00 | 25 | 1010.6 |
| 20260905175029 | 97 | 119 | 2.0 | 7.0 | 0.00 | 0.00 | 0.00 | 25 | 1010.6 |
| 20260905174529 | 97 | 169 | 2.0 | 6.0 | 0.00 | 0.00 | 0.00 | 25 | 1010.6 |
| 20260905174028 | 97 | 193 | 2.0 | 6.0 | 0.00 | 0.00 | 0.00 | 25 | 1010.6 |
| 20260905173527 | 97 | 124 | 1.0 | 5.0 | 0.00 | 0.00 | 0.00 | 27 | 1010.5 |
| 20260905173028 | 96 | 135 | 1.0 | 4.0 | 0.00 | 0.00 | 0.00 | 26 | 1010.5 |
| 20260905172525 | 96 | 171 | 1.0 | 5.0 | 0.00 | 0.00 | 0.00 | 26 | 1010.5 |
| 20260905172025 | 96 | 266 | 1.0 | 5.0 | 0.00 | 0.00 | 0.00 | 26 | 1010.4 |
| 20260905171525 | 96 | 190 | 1.0 | 4.0 | 0.00 | 0.00 | 0.00 | 27 | 1010.4 |
| 20260905171027 | 96 | 140 | 1.0 | 4.0 | 0.00 | 0.00 | 0.00 | 27 | 1010.4 |
| 20260905170522 | 96 | 238 | 0.0 | 4.0 | 0.00 | 0.00 | 0.00 | 28 | 1010.4 |
| 20260905170021 | 95 | 172 | 1.0 | 4.0 | 0.00 | 0.00 | 0.00 | 28 | 1010.4 |
| 20260905165519 | 95 | 176 | 1.0 | 3.0 | 0.00 | 0.00 | 0.00 | 29 | 1010.4 |
| 20260905165018 | 95 | 159 | 0.0 | 5.0 | 0.00 | 0.00 | 0.00 | 28 | 1010.4 |
| 20260905164517 | 95 | 157 | 1.0 | 5.0 | 0.00 | 0.00 | 0.00 | 29 | 1010.3 |
| 20260905164017 | 94 | 161 | 1.0 | 4.0 | 0.00 | 0.00 | 0.00 | 29 | 1010.3 |
| 20260905163515 | 94 | 158 | 1.0 | 4.0 | 0.00 | 0.00 | 0.00 | 30 | 1010.3 |
| 20260905163013 | 93 | 184 | 0.0 | 2.0 | 0.00 | 0.00 | 0.00 | 30 | 1010.3 |
| 20260905162511 | 93 | 153 | 0.0 | 2.0 | 0.00 | 0.00 | 0.00 | 32 | 1010.3 |
| 20260905162010 | 93 | 293 | 1.0 | 2.0 | 0.00 | 0.00 | 0.00 | 32 | 1010.3 |
| 20260905161509 | 92 | 188 | 0.0 | 2.0 | 0.00 | 0.00 | 0.00 | 32 | 1010.2 |
| 20260905161008 | 92 | 173 | 0.0 | 2.0 | 0.00 | 0.00 | 0.00 | 32 | 1010.2 |
| 20260905160506 | 91 | 250 | 0.0 | 2.0 | 0.00 | 0.00 | 0.00 | 34 | 1010.3 |
| 20260905160005 | 90 | 161 | 0.0 | 2.0 | 0.00 | 0.00 | 0.00 | 35 | 1010.3 |
| 20260905155504 | 89 | 153 | 0.0 | 0.0 | 0.00 | 0.00 | 0.00 | 36 | 1010.3 |
| 20260905155003 | 88 | 68 | 0.0 | 0.0 | 0.00 | 0.00 | 0.00 | 37 | 1010.2 |
| 20260905154502 | 87 | 68 | 0.0 | 0.0 | 0.00 | 0.00 | 0.00 | 37 | 1010.3 |
| 20260905154002 | 87 | 54 | 0.0 | 0.0 | 0.00 | 0.00 | 0.00 | 39 | 1010.2 |
| 20260905153601 | 86 | 329 | 0.0 | 0.0 | 0.00 | 0.00 | 0.00 | 39 | 1010.2 |
| 20260905153109 | 86 | 329 | 0.0 | 0.0 | 0.00 | 0.00 | 0.00 | 41 | 1010.1 |
| 20260905152559 | 85 | 306 | 0.0 | 0.0 | 0.00 | 0.00 | 0.00 | 42 | 1010.0 |
| 20260905152101 | 85 | 306 | 0.0 | 0.0 | 0.00 | 0.00 | 0.00 | 41 | 1010.0 |
| 20260905151600 | 85 | 305 | 0.0 | 0.0 | 0.00 | 0.00 | 0.00 | 42 | 1010.0 |
| 20260905151056 | 85 | 305 | 0.0 | 0.0 | 0.00 | 0.00 | 0.00 | 44 | 1010.0 |
| 20260905150556 | 85 | 305 | 0.0 | 0.0 | 0.00 | 0.00 | 0.00 | 43 | 1010.1 |
| 20260905150056 | 85 | 136 | 0.0 | 0.0 | 0.00 | 0.00 | 0.00 | 44 | 1010.1 |
| 20260905145555 | 85 | 136 | 0.0 | 0.0 | 0.00 | 0.00 | 0.00 | 46 | 1010.1 |
| 20260905145055 | 84 | 136 | 0.0 | 0.0 | 0.00 | 0.00 | 0.00 | 49 | 1010.1 |
| 20260905144554 | 84 | 136 | 0.0 | 0.0 | 0.00 | 0.00 | 0.00 | 43 | 1010.0 |
| 20260905144053 | 84 | 136 | 0.0 | 0.0 | 0.00 | 0.00 | 0.00 | 44 | 1009.9 |
| 20260905143553 | 83 | 136 | 0.0 | 0.0 | 0.00 | 0.00 | 0.00 | 45 | 1009.8 |
| 20260905143052 | 83 | 136 | 0.0 | 0.0 | 0.00 | 0.00 | 0.00 | 47 | 1009.9 |
| 20260905142550 | 83 | 136 | 0.0 | 0.0 | 0.00 | 0.00 | 0.00 | 48 | 1009.8 |
| 20260905142056 | 83 | 136 | 0.0 | 0.0 | 0.00 | 0.00 | 0.00 | 51 | 1009.7 |
| 20260905141549 | 82 | 136 | 0.0 | 0.0 | 0.00 | 0.00 | 0.00 | 51 | 1009.6 |
| 20260905141052 | 82 | 136 | 0.0 | 0.0 | 0.00 | 0.00 | 0.00 | 46 | 1009.6 |
| 20260905140547 | 82 | 136 | 0.0 | 0.0 | 0.00 | 0.00 | 0.00 | 45 | 1009.6 |
| 20260905140048 | 82 | 136 | 0.0 | 0.0 | 0.00 | 0.00 | 0.00 | 47 | 1009.6 |
| 20260905135546 | 82 | 136 | 0.0 | 0.0 | 0.00 | 0.00 | 0.00 | 45 | 1009.5 |
| 20260905135045 | 82 | 136 | 0.0 | 0.0 | 0.00 | 0.00 | 0.00 | 45 | 1009.4 |
| 20260905134546 | 81 | 55 | 0.0 | 0.0 | 0.00 | 0.00 | 0.00 | 45 | 1009.4 |
| 20260905134047 | 81 | 55 | 0.0 | 0.0 | 0.00 | 0.00 | 0.00 | 45 | 1009.3 |
| 20260905133543 | 81 | 55 | 0.0 | 0.0 | 0.00 | 0.00 | 0.00 | 46 | 1009.2 |
| 20260905133048 | 81 | 55 | 0.0 | 0.0 | 0.00 | 0.00 | 0.00 | 46 | 1009.1 |
| 20260905132541 | 81 | 55 | 0.0 | 0.0 | 0.00 | 0.00 | 0.00 | 46 | 1009.0 |
| 20260905132040 | 81 | 55 | 0.0 | 0.0 | 0.00 | 0.00 | 0.00 | 45 | 1008.9 |
| 20260905131543 | 81 | 55 | 0.0 | 0.0 | 0.00 | 0.00 | 0.00 | 43 | 1008.9 |
| 20260905131041 | 81 | 22 | 0.0 | 0.0 | 0.00 | 0.00 | 0.00 | 43 | 1008.9 |
| 20260905130536 | 81 | 22 | 0.0 | 0.0 | 0.00 | 0.00 | 0.00 | 45 | 1008.8 |
| 20260905130041 | 81 | 22 | 0.0 | 0.0 | 0.00 | 0.00 | 0.00 | 42 | 1008.7 |
| 20260905125535 | 81 | 22 | 0.0 | 0.0 | 0.00 | 0.00 | 0.00 | 42 | 1008.7 |
| 20260905125036 | 81 | 22 | 0.0 | 0.0 | 0.00 | 0.00 | 0.00 | 44 | 1008.7 |
| 20260905124535 | 82 | 234 | 0.0 | 0.0 | 0.00 | 0.00 | 0.00 | 44 | 1008.7 |
| 20260905124034 | 82 | 234 | 0.0 | 0.0 | 0.00 | 0.00 | 0.00 | 41 | 1008.6 |
| 20260905123531 | 82 | 235 | 0.0 | 0.0 | 0.00 | 0.00 | 0.00 | 43 | 1008.6 |
| 20260905123030 | 82 | 234 | 0.0 | 0.0 | 0.00 | 0.00 | 0.00 | 42 | 1008.5 |
| 20260905122530 | 82 | 235 | 0.0 | 0.0 | 0.00 | 0.00 | 0.00 | 42 | 1008.4 |
| 20260905122029 | 82 | 234 | 0.0 | 0.0 | 0.00 | 0.00 | 0.00 | 44 | 1008.5 |
| 20260905121529 | 82 | 235 | 0.0 | 0.0 | 0.00 | 0.00 | 0.00 | 41 | 1008.5 |
| 20260905121028 | 83 | 234 | 0.0 | 0.0 | 0.00 | 0.00 | 0.00 | 42 | 1008.4 |
| 20260905120528 | 83 | 234 | 0.0 | 0.0 | 0.00 | 0.00 | 0.00 | 41 | 1008.3 |
| 20260905120027 | 83 | 234 | 0.0 | 2.0 | 0.00 | 0.00 | 0.00 | 41 | 1008.4 |
| 20260905115525 | 83 | 234 | 0.0 | 2.0 | 0.00 | 0.00 | 0.00 | 42 | 1008.3 |
| 20260905115027 | 83 | 148 | 0.0 | 2.0 | 0.00 | 0.00 | 0.00 | 43 | 1008.3 |
| 20260905114525 | 84 | 148 | 0.0 | 2.0 | 0.00 | 0.00 | 0.00 | 40 | 1008.3 |
| 20260905114023 | 84 | 105 | 0.0 | 2.0 | 0.00 | 0.00 | 0.00 | 39 | 1008.2 |
| 20260905113523 | 84 | 88 | 0.0 | 2.0 | 0.00 | 0.00 | 0.00 | 39 | 1008.2 |
| 20260905113022 | 84 | 80 | 1.0 | 2.0 | 0.00 | 0.00 | 0.00 | 39 | 1008.2 |
| 20260905112521 | 85 | 77 | 0.0 | 2.0 | 0.00 | 0.00 | 0.00 | 38 | 1008.3 |
| 20260905112021 | 85 | 306 | 0.0 | 2.0 | 0.00 | 0.00 | 0.00 | 37 | 1008.2 |
| 20260905111530 | 86 | 306 | 0.0 | 2.0 | 0.00 | 0.00 | 0.00 | 37 | 1008.1 |
| 20260905111019 | 86 | 306 | 0.0 | 2.0 | 0.00 | 0.00 | 0.00 | 36 | 1008.1 |
| 20260905110518 | 86 | 306 | 0.0 | 2.0 | 0.00 | 0.00 | 0.00 | 36 | 1008.1 |
| 20260905110032 | 86 | 306 | 0.0 | 3.0 | 0.00 | 0.00 | 0.00 | 36 | 1008.1 |
| 20260905105517 | 86 | 313 | 0.0 | 3.0 | 0.00 | 0.00 | 0.00 | 37 | 1008.1 |
| 20260905105017 | 86 | 298 | 1.0 | 3.0 | 0.00 | 0.00 | 0.00 | 36 | 1008.1 |
| 20260905104516 | 86 | 257 | 0.0 | 2.0 | 0.00 | 0.00 | 0.00 | 36 | 1008.1 |
| 20260905104015 | 86 | 307 | 0.0 | 2.0 | 0.00 | 0.00 | 0.00 | 36 | 1008.1 |
| 20260905103517 | 87 | 309 | 0.0 | 2.0 | 0.00 | 0.00 | 0.00 | 36 | 1008.0 |
| 20260905103014 | 87 | 238 | 0.0 | 2.0 | 0.00 | 0.00 | 0.00 | 35 | 1008.0 |
| 20260905102518 | 87 | 238 | 0.0 | 2.0 | 0.00 | 0.00 | 0.00 | 35 | 1007.9 |
| 20260905102014 | 87 | 238 | 0.0 | 2.0 | 0.00 | 0.00 | 0.00 | 35 | 1007.9 |
| 20260905101514 | 87 | 256 | 0.0 | 2.0 | 0.00 | 0.00 | 0.00 | 35 | 1007.9 |
| 20260905101013 | 88 | 250 | 0.0 | 3.0 | 0.00 | 0.00 | 0.00 | 35 | 1007.8 |
| 20260905100514 | 88 | 286 | 0.0 | 3.0 | 0.00 | 0.00 | 0.00 | 35 | 1007.7 |
| 20260905100014 | 88 | 294 | 1.0 | 6.0 | 0.00 | 0.00 | 0.00 | 35 | 1007.7 |
| 20260905095516 | 88 | 263 | 2.0 | 7.0 | 0.00 | 0.00 | 0.00 | 34 | 1007.7 |
| 20260905095016 | 88 | 246 | 3.0 | 7.0 | 0.00 | 0.00 | 0.00 | 35 | 1007.7 |
| 20260905094514 | 88 | 288 | 2.0 | 9.0 | 0.00 | 0.00 | 0.00 | 35 | 1007.7 |
| 20260905094012 | 88 | 259 | 4.0 | 10.0 | 0.00 | 0.00 | 0.00 | 35 | 1007.7 |
| 20260905093513 | 88 | 261 | 5.0 | 15.0 | 0.00 | 0.00 | 0.00 | 35 | 1007.7 |
| 20260905093015 | 88 | 266 | 6.0 | 15.0 | 0.00 | 0.00 | 0.00 | 35 | 1007.7 |
| 20260905092511 | 88 | 295 | 5.0 | 11.0 | 0.00 | 0.00 | 0.00 | 35 | 1007.8 |
| 20260905092011 | 88 | 322 | 7.0 | 11.0 | 0.00 | 0.00 | 0.00 | 36 | 1007.8 |
| 20260905091514 | 88 | 303 | 4.0 | 8.0 | 0.00 | 0.00 | 0.00 | 35 | 1007.8 |
| 20260905091010 | 88 | 275 | 2.0 | 7.0 | 0.00 | 0.00 | 0.00 | 36 | 1007.9 |
| 20260905090510 | 88 | 317 | 3.0 | 8.0 | 0.00 | 0.00 | 0.00 | 36 | 1007.9 |
| 20260905090016 | 88 | 304 | 3.0 | 8.0 | 0.00 | 0.00 | 0.00 | 36 | 1007.9 |
| 20260905085510 | 88 | 259 | 3.0 | 7.0 | 0.00 | 0.00 | 0.00 | 36 | 1007.9 |
| 20260905085010 | 88 | 299 | 3.0 | 7.0 | 0.00 | 0.00 | 0.00 | 36 | 1007.9 |
| 20260905084510 | 88 | 315 | 3.0 | 7.0 | 0.00 | 0.00 | 0.00 | 36 | 1007.9 |
| 20260905084008 | 88 | 289 | 3.0 | 7.0 | 0.00 | 0.00 | 0.00 | 36 | 1008.0 |
| 20260905083508 | 88 | 239 | 4.0 | 9.0 | 0.00 | 0.00 | 0.00 | 36 | 1008.0 |
| 20260905083008 | 88 | 269 | 5.0 | 8.0 | 0.00 | 0.00 | 0.00 | 36 | 1008.1 |
| 20260905082506 | 88 | 287 | 2.0 | 7.0 | 0.00 | 0.00 | 0.00 | 36 | 1008.1 |
| 20260905082011 | 88 | 296 | 3.0 | 8.0 | 0.00 | 0.00 | 0.00 | 36 | 1008.1 |
| 20260905081506 | 88 | 314 | 2.0 | 6.0 | 0.00 | 0.00 | 0.00 | 36 | 1008.1 |
| 20260905081007 | 88 | 276 | 2.0 | 4.0 | 0.00 | 0.00 | 0.00 | 36 | 1008.2 |
| 20260905080505 | 88 | 262 | 0.0 | 4.0 | 0.00 | 0.00 | 0.00 | 35 | 1008.2 |
| 20260905080005 | 88 | 259 | 1.0 | 5.0 | 0.00 | 0.00 | 0.00 | 36 | 1008.2 |
| 20260905075506 | 88 | 296 | 1.0 | 5.0 | 0.00 | 0.00 | 0.00 | 35 | 1008.3 |
| 20260905075005 | 87 | 263 | 3.0 | 7.0 | 0.00 | 0.00 | 0.00 | 36 | 1008.3 |
| 20260905074505 | 87 | 271 | 3.0 | 7.0 | 0.00 | 0.00 | 0.00 | 36 | 1008.2 |
| 20260905074005 | 87 | 269 | 1.0 | 3.0 | 0.00 | 0.00 | 0.00 | 36 | 1008.3 |
| 20260905073504 | 87 | 257 | 0.0 | 2.0 | 0.00 | 0.00 | 0.00 | 36 | 1008.4 |
| 20260905073003 | 87 | 205 | 0.0 | 2.0 | 0.00 | 0.00 | 0.00 | 36 | 1008.3 |
| 20260905072502 | 87 | 205 | 0.0 | 2.0 | 0.00 | 0.00 | 0.00 | 36 | 1008.3 |
| 20260905072001 | 88 | 188 | 0.0 | 0.0 | 0.00 | 0.00 | 0.00 | 35 | 1008.2 |
| 20260905071601 | 88 | 188 | 0.0 | 1.0 | 0.00 | 0.00 | 0.00 | 35 | 1008.2 |
| 20260905071104 | 88 | 188 | 0.0 | 2.0 | 0.00 | 0.00 | 0.00 | 34 | 1008.2 |
| 20260905070558 | 89 | 186 | 0.0 | 2.0 | 0.00 | 0.00 | 0.00 | 34 | 1008.2 |
| 20260905070057 | 89 | 210 | 0.0 | 1.0 | 0.00 | 0.00 | 0.00 | 34 | 1008.2 |
| 20260905065557 | 89 | 229 | 0.0 | 1.0 | 0.00 | 0.00 | 0.00 | 34 | 1008.1 |
| 20260905065056 | 89 | 229 | 0.0 | 1.0 | 0.00 | 0.00 | 0.00 | 33 | 1008.1 |
| 20260905064603 | 89 | 226 | 0.0 | 2.0 | 0.00 | 0.00 | 0.00 | 33 | 1008.1 |
| 20260905064056 | 90 | 226 | 0.0 | 2.0 | 0.00 | 0.00 | 0.00 | 33 | 1008.0 |
| 20260905063556 | 90 | 222 | 0.0 | 2.0 | 0.00 | 0.00 | 0.00 | 32 | 1008.0 |
| 20260905063058 | 90 | 195 | 0.0 | 5.0 | 0.00 | 0.00 | 0.00 | 33 | 1008.0 |
| 20260905062556 | 90 | 286 | 1.0 | 5.0 | 0.00 | 0.00 | 0.00 | 32 | 1007.9 |
| 20260905062055 | 90 | 288 | 2.0 | 5.0 | 0.00 | 0.00 | 0.00 | 32 | 1007.9 |
| 20260905061559 | 90 | 277 | 2.0 | 6.0 | 0.00 | 0.00 | 0.00 | 31 | 1007.9 |
| 20260905061057 | 90 | 262 | 2.0 | 6.0 | 0.00 | 0.00 | 0.00 | 31 | 1007.9 |
| 20260905060555 | 90 | 280 | 1.0 | 4.0 | 0.00 | 0.00 | 0.00 | 31 | 1007.8 |
| 20260905060055 | 90 | 260 | 2.0 | 4.0 | 0.00 | 0.00 | 0.00 | 31 | 1007.9 |
| 20260905055559 | 91 | 286 | 1.0 | 6.0 | 0.00 | 0.00 | 0.00 | 31 | 1007.9 |
| 20260905055055 | 91 | 296 | 2.0 | 6.0 | 0.00 | 0.00 | 0.00 | 31 | 1007.8 |
| 20260905054554 | 91 | 286 | 1.0 | 5.0 | 0.00 | 0.00 | 0.00 | 31 | 1007.8 |
| 20260905054054 | 91 | 279 | 1.0 | 5.0 | 0.00 | 0.00 | 0.00 | 31 | 1007.8 |
| 20260905053554 | 91 | 279 | 1.0 | 3.0 | 0.00 | 0.00 | 0.00 | 31 | 1007.8 |
| 20260905053103 | 91 | 240 | 1.0 | 3.0 | 0.00 | 0.00 | 0.00 | 31 | 1007.7 |
| 20260905052553 | 91 | 269 | 1.0 | 5.0 | 0.00 | 0.00 | 0.00 | 30 | 1007.7 |
| 20260905052053 | 92 | 282 | 2.0 | 5.0 | 0.00 | 0.00 | 0.00 | 30 | 1007.6 |
| 20260905051553 | 92 | 281 | 2.0 | 6.0 | 0.00 | 0.00 | 0.00 | 30 | 1007.6 |
| 20260905051053 | 92 | 248 | 2.0 | 6.0 | 0.00 | 0.00 | 0.00 | 30 | 1007.7 |
| 20260905050553 | 92 | 263 | 0.0 | 7.0 | 0.00 | 0.00 | 0.00 | 30 | 1007.6 |
| 20260905050053 | 92 | 250 | 2.0 | 7.0 | 0.00 | 0.00 | 0.00 | 30 | 1007.5 |
| 20260905045554 | 92 | 333 | 3.0 | 8.0 | 0.00 | 0.00 | 0.00 | 30 | 1007.6 |
| 20260905045053 | 92 | 292 | 3.0 | 8.0 | 0.00 | 0.00 | 0.00 | 30 | 1007.5 |
| 20260905044552 | 92 | 289 | 2.0 | 6.0 | 0.00 | 0.00 | 0.00 | 30 | 1007.5 |
| 20260905044052 | 93 | 265 | 2.0 | 6.0 | 0.00 | 0.00 | 0.00 | 29 | 1007.4 |
| 20260905043554 | 93 | 290 | 2.0 | 6.0 | 0.00 | 0.00 | 0.00 | 29 | 1007.3 |
| 20260905043057 | 93 | 269 | 2.0 | 5.0 | 0.00 | 0.00 | 0.00 | 29 | 1007.3 |
| 20260905042551 | 93 | 232 | 2.0 | 6.0 | 0.00 | 0.00 | 0.00 | 29 | 1007.2 |
| 20260905042053 | 93 | 263 | 2.0 | 6.0 | 0.00 | 0.00 | 0.00 | 29 | 1007.3 |
| 20260905041554 | 93 | 259 | 2.0 | 6.0 | 0.00 | 0.00 | 0.00 | 28 | 1007.2 |
| 20260905041053 | 93 | 265 | 2.0 | 6.0 | 0.00 | 0.00 | 0.00 | 28 | 1007.1 |
| 20260905040551 | 94 | 277 | 3.0 | 6.0 | 0.00 | 0.00 | 0.00 | 28 | 1007.1 |
| 20260905040054 | 94 | 237 | 1.0 | 9.0 | 0.00 | 0.00 | 0.00 | 28 | 1007.0 |
| 20260905035555 | 94 | 273 | 3.0 | 11.0 | 0.00 | 0.00 | 0.00 | 27 | 1007.0 |
| 20260905035054 | 94 | 265 | 2.0 | 11.0 | 0.00 | 0.00 | 0.00 | 27 | 1006.9 |
| 20260905034606 | 94 | 263 | 3.0 | 9.0 | 0.00 | 0.00 | 0.00 | 27 | 1006.9 |
| 20260905034050 | 94 | 272 | 4.0 | 9.0 | 0.00 | 0.00 | 0.00 | 27 | 1006.8 |
| 20260905033550 | 95 | 293 | 2.0 | 8.0 | 0.00 | 0.00 | 0.00 | 27 | 1006.8 |
| 20260905033112 | 95 | 299 | 5.0 | 9.0 | 0.00 | 0.00 | 0.00 | 26 | 1006.7 |
| 20260905032550 | 95 | 290 | 3.0 | 11.0 | 0.00 | 0.00 | 0.00 | 26 | 1006.7 |
| 20260905032049 | 95 | 254 | 3.0 | 10.0 | 0.00 | 0.00 | 0.00 | 26 | 1006.7 |
| 20260905031601 | 95 | 262 | 3.0 | 10.0 | 0.00 | 0.00 | 0.00 | 26 | 1006.6 |
| 20260905031048 | 95 | 302 | 4.0 | 8.0 | 0.00 | 0.00 | 0.00 | 26 | 1006.5 |
| 20260905030549 | 95 | 246 | 4.0 | 8.0 | 0.00 | 0.00 | 0.00 | 26 | 1006.4 |
| 20260905030057 | 95 | 264 | 3.0 | 9.0 | 0.00 | 0.00 | 0.00 | 26 | 1006.3 |
| 20260905025548 | 95 | 284 | 4.0 | 9.0 | 0.00 | 0.00 | 0.00 | 26 | 1006.2 |
| 20260905025049 | 95 | 296 | 4.0 | 8.0 | 0.00 | 0.00 | 0.00 | 26 | 1006.2 |
| 20260905024548 | 95 | 278 | 2.0 | 9.0 | 0.00 | 0.00 | 0.00 | 27 | 1006.1 |
| 20260905024048 | 95 | 249 | 2.0 | 9.0 | 0.00 | 0.00 | 0.00 | 27 | 1006.1 |
| 20260905023548 | 96 | 278 | 3.0 | 9.0 | 0.00 | 0.00 | 0.00 | 27 | 1006.1 |
| 20260905023055 | 96 | 264 | 1.0 | 9.0 | 0.00 | 0.00 | 0.00 | 27 | 1006.0 |
| 20260905022547 | 96 | 207 | 2.0 | 9.0 | 0.00 | 0.00 | 0.00 | 27 | 1005.8 |
| 20260905022047 | 96 | 224 | 3.0 | 8.0 | 0.00 | 0.00 | 0.00 | 28 | 1005.8 |
| 20260905021548 | 96 | 284 | 2.0 | 8.0 | 0.00 | 0.00 | 0.00 | 28 | 1005.8 |
| 20260905021047 | 96 | 245 | 2.0 | 9.0 | 0.00 | 0.00 | 0.00 | 28 | 1005.8 |
| 20260905020547 | 96 | 209 | 1.0 | 9.0 | 0.00 | 0.00 | 0.00 | 28 | 1005.7 |
| 20260905020047 | 97 | 188 | 1.0 | 9.0 | 0.00 | 0.00 | 0.00 | 27 | 1005.7 |
| 20260905015546 | 97 | 255 | 2.0 | 7.0 | 0.00 | 0.00 | 0.00 | 27 | 1005.6 |
| 20260905015046 | 97 | 253 | 2.0 | 7.0 | 0.00 | 0.00 | 0.00 | 27 | 1005.6 |
| 20260905014546 | 97 | 270 | 1.0 | 6.0 | 0.00 | 0.00 | 0.00 | 27 | 1005.5 |
| 20260905014046 | 97 | 252 | 1.0 | 6.0 | 0.00 | 0.00 | 0.00 | 26 | 1005.6 |
| 20260905013549 | 98 | 232 | 1.0 | 6.0 | 0.00 | 0.00 | 0.00 | 27 | 1005.6 |
| 20260905013046 | 98 | 227 | 2.0 | 7.0 | 0.00 | 0.00 | 0.00 | 26 | 1005.5 |
| 20260905012546 | 98 | 237 | 1.0 | 7.0 | 0.00 | 0.00 | 0.00 | 26 | 1005.5 |
| 20260905012048 | 99 | 246 | 2.0 | 7.0 | 0.00 | 0.00 | 0.00 | 26 | 1005.4 |
| 20260905011548 | 99 | 234 | 1.0 | 9.0 | 0.00 | 0.00 | 0.00 | 26 | 1005.4 |
| 20260905011045 | 99 | 217 | 2.0 | 9.0 | 0.00 | 0.00 | 0.00 | 26 | 1005.4 |
| 20260905010545 | 99 | 268 | 3.0 | 7.0 | 0.00 | 0.00 | 0.00 | 25 | 1005.4 |
| 20260905010053 | 100 | 277 | 3.0 | 9.0 | 0.00 | 0.00 | 0.00 | 25 | 1005.4 |
| 20260905005547 | 100 | 198 | 2.0 | 14.0 | 0.00 | 0.00 | 0.00 | 25 | 1005.4 |
| 20260905005045 | 100 | 260 | 5.0 | 14.0 | 0.00 | 0.00 | 0.00 | 24 | 1005.4 |
| 20260905004546 | 101 | 254 | 3.0 | 10.0 | 0.00 | 0.00 | 0.00 | 24 | 1005.4 |
| 20260905004044 | 101 | 244 | 3.0 | 11.0 | 0.00 | 0.00 | 0.00 | 24 | 1005.3 |
| 20260905003546 | 101 | 203 | 5.0 | 11.0 | 0.00 | 0.00 | 0.00 | 24 | 1005.4 |
| 20260905003044 | 101 | 178 | 2.0 | 7.0 | 0.00 | 0.00 | 0.00 | 24 | 1005.2 |
| 20260905002544 | 101 | 279 | 3.0 | 7.0 | 0.00 | 0.00 | 0.00 | 23 | 1005.3 |
| 20260905002043 | 101 | 213 | 3.0 | 8.0 | 0.00 | 0.00 | 0.00 | 23 | 1005.2 |
| 20260905001553 | 100 | 179 | 3.0 | 8.0 | 0.00 | 0.00 | 0.00 | 23 | 1005.4 |
| 20260905001043 | 100 | 272 | 3.0 | 11.0 | 0.00 | 0.00 | 0.00 | 24 | 1005.4 |
| 20260905000543 | 101 | 240 | 5.0 | 12.0 | 0.00 | 0.00 | 0.00 | 23 | 1005.5 |
| 20260905000042 | 101 | 246 | 6.0 | 12.0 | 0.00 | 0.00 | 0.00 | 22 | 1005.5 |
| 20260904235541 | 101 | 248 | 4.0 | 13.0 | 0.00 | 0.00 | 0.00 | 22 | 1005.5 |
| 20260904235041 | 102 | 301 | 4.0 | 13.0 | 0.00 | 0.00 | 0.00 | 22 | 1005.5 |
| 20260904234541 | 102 | 267 | 2.0 | 12.0 | 0.00 | 0.00 | 0.00 | 22 | 1005.5 |
| 20260904234044 | 102 | 264 | 5.0 | 13.0 | 0.00 | 0.00 | 0.00 | 22 | 1005.5 |
| 20260904233543 | 102 | 213 | 4.0 | 8.0 | 0.00 | 0.00 | 0.00 | 23 | 1005.6 |
| 20260904233046 | 102 | 245 | 3.0 | 8.0 | 0.00 | 0.00 | 0.00 | 23 | 1005.6 |
| 20260904232540 | 102 | 302 | 3.0 | 10.0 | 0.00 | 0.00 | 0.00 | 24 | 1005.5 |
| 20260904232042 | 101 | 213 | 4.0 | 11.0 | 0.00 | 0.00 | 0.00 | 24 | 1005.7 |
| 20260904231542 | 101 | 256 | 3.0 | 11.0 | 0.00 | 0.00 | 0.00 | 24 | 1005.6 |
| 20260904231039 | 101 | 297 | 6.0 | 15.0 | 0.00 | 0.00 | 0.00 | 26 | 1005.8 |
| 20260904230539 | 102 | 283 | 7.0 | 15.0 | 0.00 | 0.00 | 0.00 | 25 | 1005.8 |
| 20260904225538 | 103 | 267 | 5.0 | 14.0 | 0.00 | 0.00 | 0.00 | 23 | 1005.8 |
| 20260904225038 | 102 | 229 | 2.0 | 13.0 | 0.00 | 0.00 | 0.00 | 23 | 1005.9 |
| 20260904224538 | 102 | 257 | 6.0 | 13.0 | 0.00 | 0.00 | 0.00 | 23 | 1006.0 |
| 20260904224038 | 103 | 219 | 2.0 | 10.0 | 0.00 | 0.00 | 0.00 | 23 | 1005.9 |
| 20260904223537 | 103 | 198 | 3.0 | 14.0 | 0.00 | 0.00 | 0.00 | 23 | 1006.0 |
| 20260904223040 | 104 | 317 | 8.0 | 13.0 | 0.00 | 0.00 | 0.00 | 23 | 1006.1 |
| 20260904222540 | 105 | 272 | 2.0 | 9.0 | 0.00 | 0.00 | 0.00 | 23 | 1006.0 |
| 20260904222035 | 104 | 192 | 4.0 | 8.0 | 0.00 | 0.00 | 0.00 | 23 | 1006.1 |
| 20260904221536 | 104 | 176 | 5.0 | 8.0 | 0.00 | 0.00 | 0.00 | 23 | 1006.1 |
| 20260904221033 | 103 | 248 | 1.0 | 7.0 | 0.00 | 0.00 | 0.00 | 25 | 1006.2 |
| 20260904220532 | 103 | 188 | 2.0 | 9.0 | 0.00 | 0.00 | 0.00 | 25 | 1006.3 |
| 20260904220035 | 103 | 231 | 2.0 | 9.0 | 0.00 | 0.00 | 0.00 | 25 | 1006.3 |
| 20260904215531 | 103 | 254 | 2.0 | 7.0 | 0.00 | 0.00 | 0.00 | 25 | 1006.4 |
| 20260904215029 | 102 | 272 | 1.0 | 19.0 | 0.00 | 0.00 | 0.00 | 27 | 1006.5 |
| 20260904214529 | 102 | 205 | 6.0 | 19.0 | 0.00 | 0.00 | 0.00 | 27 | 1006.5 |
| 20260904214029 | 102 | 250 | 3.0 | 14.0 | 0.00 | 0.00 | 0.00 | 26 | 1006.6 |
| 20260904213533 | 102 | 317 | 6.0 | 14.0 | 0.00 | 0.00 | 0.00 | 27 | 1006.7 |
| 20260904213031 | 102 | 221 | 2.0 | 7.0 | 0.00 | 0.00 | 0.00 | 27 | 1006.8 |
| 20260904212528 | 102 | 155 | 2.0 | 6.0 | 0.00 | 0.00 | 0.00 | 27 | 1006.8 |
| 20260904212032 | 102 | 193 | 3.0 | 7.0 | 0.00 | 0.00 | 0.00 | 28 | 1007.0 |
| 20260904211528 | 102 | 230 | 3.0 | 7.0 | 0.00 | 0.00 | 0.00 | 28 | 1007.0 |
| 20260904211028 | 102 | 271 | 1.0 | 6.0 | 0.00 | 0.00 | 0.00 | 28 | 1006.9 |
| 20260904210526 | 102 | 132 | 2.0 | 6.0 | 0.00 | 0.00 | 0.00 | 28 | 1007.1 |
| 20260904210025 | 101 | 209 | 2.0 | 5.0 | 0.00 | 0.00 | 0.00 | 29 | 1007.1 |
| 20260904205524 | 101 | 133 | 1.0 | 5.0 | 0.00 | 0.00 | 0.00 | 30 | 1007.1 |
| 20260904205024 | 101 | 267 | 2.0 | 6.0 | 0.00 | 0.00 | 0.00 | 30 | 1007.2 |
| 20260904204530 | 100 | 184 | 1.0 | 6.0 | 0.00 | 0.00 | 0.00 | 30 | 1007.3 |
| 20260904204025 | 100 | 138 | 1.0 | 4.0 | 0.00 | 0.00 | 0.00 | 30 | 1007.3 |
| 20260904203524 | 100 | 255 | 0.0 | 4.0 | 0.00 | 0.00 | 0.00 | 31 | 1007.5 |
| 20260904203024 | 100 | 145 | 1.0 | 9.0 | 0.00 | 0.00 | 0.00 | 30 | 1007.6 |
| 20260904202524 | 100 | 275 | 3.0 | 8.0 | 0.00 | 0.00 | 0.00 | 31 | 1007.6 |
| 20260904202021 | 100 | 259 | 2.0 | 7.0 | 0.00 | 0.00 | 0.00 | 31 | 1007.7 |
| 20260904201521 | 100 | 241 | 1.0 | 6.0 | 0.00 | 0.00 | 0.00 | 31 | 1007.8 |
| 20260904201022 | 100 | 198 | 2.0 | 6.0 | 0.00 | 0.00 | 0.00 | 31 | 1007.9 |
| 20260904200521 | 100 | 172 | 0.0 | 5.0 | 0.00 | 0.00 | 0.00 | 32 | 1007.9 |
| 20260904200020 | 100 | 207 | 0.0 | 5.0 | 0.00 | 0.00 | 0.00 | 32 | 1008.0 |
| 20260904195521 | 99 | 215 | 2.0 | 6.0 | 0.00 | 0.00 | 0.00 | 33 | 1008.1 |
| 20260904195016 | 99 | 159 | 2.0 | 6.0 | 0.00 | 0.00 | 0.00 | 34 | 1008.1 |
| 20260904194516 | 98 | 79 | 1.0 | 8.0 | 0.00 | 0.00 | 0.00 | 35 | 1008.1 |
| 20260904194016 | 98 | 159 | 2.0 | 8.0 | 0.00 | 0.00 | 0.00 | 35 | 1008.2 |